TimeAKST,TemperatureF,Dew PointF,Humidity,Sea Level PressureIn,VisibilityMPH,Wind Direction,Wind SpeedMPH,Gust SpeedMPH,PrecipitationIn,Events,Conditions,WindDirDegrees,DateUTC
12:35 AM,10.4,8.6,92,29.57,4.0,East,10.4,-,0.00,Snow,Light Snow,90,2013-02-13 09:35:00
12:53 AM,10.9,9.0,92,29.60,8.0,East,10.4,-,0.00,Snow,Light Snow,100,2013-02-13 09:53:00
1:28 AM,12.2,10.4,92,29.57,10.0,East,8.1,-,N/A,,Overcast,80,2013-02-13 10:28:00
1:53 AM,12.9,10.0,88,29.58,10.0,East,9.2,-,N/A,,Overcast,80,2013-02-13 10:53:00
3:53 AM,16.0,12.9,88,29.57,3.0,ENE,8.1,-,0.01,Snow,Light Snow,70,2013-02-13 12:53:00
4:40 AM,17.6,14.0,86,29.55,2.0,ENE,8.1,-,0.01,Snow,Light Snow,70,2013-02-13 13:40:00
4:53 AM,17.1,14.0,88,29.56,2.0,ENE,5.8,-,0.01,Snow,Light Snow,70,2013-02-13 13:53:00
5:18 AM,17.6,15.8,93,29.53,2.0,South,8.1,-,0.01,Snow,Light Snow,170,2013-02-13 14:18:00
5:29 AM,17.6,14.0,86,29.52,1.0,SE,9.2,20.7,0.02,Snow,Light Snow,130,2013-02-13 14:29:00
5:51 AM,17.6,14.0,86,29.53,2.0,East,9.2,-,0.03,Snow,Light Snow,100,2013-02-13 14:51:00
5:53 AM,17.1,14.0,88,29.53,2.0,East,9.2,-,0.03,Snow,Light Snow,100,2013-02-13 14:53:00
6:37 AM,12.2,10.4,92,29.54,0.8,SSE,19.6,25.3,0.01,Snow,Light Snow,150,2013-02-13 15:37:00
6:41 AM,10.4,8.6,92,29.54,0.8,SSE,16.1,25.3,0.01,Snow,Light Snow,150,2013-02-13 15:41:00
6:53 AM,9.0,5.0,84,29.54,2.0,SE,16.1,-,0.01,Snow,Light Snow,140,2013-02-13 15:53:00
7:07 AM,8.6,1.4,73,29.57,6.0,SE,16.1,21.9,0.00,Snow,Light Snow,130,2013-02-13 16:07:00
7:29 AM,6.8,-0.4,72,29.57,7.0,ESE,16.1,-,0.00,,Overcast,120,2013-02-13 16:29:00
7:53 AM,1.9,-4.0,76,29.58,10.0,ESE,15.0,-,0.00,,Mostly Cloudy,110,2013-02-13 16:53:00
8:53 AM,-4.0,-9.0,79,29.57,10.0,ENE,12.7,-,N/A,,Partly Cloudy,70,2013-02-13 17:53:00
9:27 AM,-0.4,-5.8,78,29.58,7.0,ENE,17.3,-,0.00,,Mostly Cloudy,70,2013-02-13 18:27:00
9:53 AM,-0.0,-5.1,79,29.58,7.0,East,17.3,-,0.00,,Overcast,80,2013-02-13 18:53:00
10:53 AM,-0.9,-5.1,83,29.60,7.0,East,17.3,-,N/A,,Mostly Cloudy,80,2013-02-13 19:53:00
11:19 AM,-0.4,-5.8,78,29.59,7.0,East,18.4,26.5,N/A,,Mostly Cloudy,80,2013-02-13 20:19:00
11:53 AM,-0.9,-5.1,83,29.61,5.0,East,16.1,-,N/A,,Overcast,90,2013-02-13 20:53:00
12:53 PM,-0.0,-4.0,83,29.61,3.0,East,15.0,-,0.00,Snow,Light Snow,90,2013-02-13 21:53:00
1:13 PM,-0.4,-4.0,85,29.61,1.8,East,13.8,-,0.00,Snow,Light Snow,80,2013-02-13 22:13:00
1:39 PM,-0.4,-4.0,85,29.61,2.0,East,18.4,-,0.00,Snow,Light Snow,100,2013-02-13 22:39:00
1:53 PM,-0.0,-4.0,83,29.62,3.0,East,16.1,-,0.00,,Overcast,100,2013-02-13 22:53:00
2:24 PM,-0.4,-5.8,78,29.64,3.0,East,19.6,-,0.00,Snow,Light Snow,100,2013-02-13 23:24:00
2:45 PM,-0.4,-4.0,85,29.63,1.2,East,18.4,-,0.00,Snow,Light Snow,100,2013-02-13 23:45:00
2:53 PM,-0.0,-4.0,83,29.62,1.0,East,17.3,-,0.00,Snow,Light Snow,100,2013-02-13 23:53:00
3:24 PM,-0.4,-4.0,85,29.62,1.0,East,16.1,-,0.00,Snow,Light Snow,100,2013-02-14 00:24:00
3:53 PM,-0.0,-4.0,83,29.63,1.0,East,19.6,-,0.00,Snow,Light Snow,90,2013-02-14 00:53:00
4:09 PM,-0.4,-4.0,85,29.62,0.8,East,17.3,-,0.00,Snow,Light Snow,90,2013-02-14 01:09:00
4:25 PM,-0.4,-4.0,85,29.63,2.0,East,17.3,-,0.00,Snow,Light Snow,90,2013-02-14 01:25:00
4:35 PM,-0.4,-4.0,85,29.64,3.0,East,13.8,-,0.00,Snow,Light Snow,100,2013-02-14 01:35:00
4:53 PM,-0.0,-4.0,83,29.64,3.0,East,16.1,-,0.00,Snow,Light Snow,90,2013-02-14 01:53:00
5:00 PM,-0.4,-4.0,85,29.63,1.5,East,17.3,-,0.00,Snow,Light Snow,90,2013-02-14 02:00:00
5:07 PM,-0.4,-4.0,85,29.64,4.0,East,19.6,-,0.00,,Overcast,90,2013-02-14 02:07:00
5:24 PM,-0.4,-4.0,85,29.65,2.0,East,17.3,-,0.00,Snow,Light Snow,90,2013-02-14 02:24:00
5:53 PM,-0.0,-4.0,83,29.64,2.0,East,17.3,-,0.00,Snow,Light Snow,90,2013-02-14 02:53:00
6:00 PM,-0.4,-4.0,85,29.65,0.8,East,16.1,-,0.00,Snow,Light Snow,90,2013-02-14 03:00:00
6:53 PM,-0.0,-2.9,88,29.65,0.8,East,15.0,-,0.00,Snow,Light Snow,90,2013-02-14 03:53:00
7:01 PM,-0.4,-2.2,92,29.66,1.2,East,13.8,-,0.00,Snow,Light Snow,90,2013-02-14 04:01:00
7:36 PM,1.4,-2.2,85,29.66,3.0,East,11.5,-,0.00,Snow,Light Snow,90,2013-02-14 04:36:00
7:53 PM,1.0,-2.9,83,29.66,3.0,East,11.5,-,0.00,Snow,Light Snow,90,2013-02-14 04:53:00
8:53 PM,-0.0,-4.0,83,29.68,9.0,East,11.5,-,0.00,,Overcast,90,2013-02-14 05:53:00
9:53 PM,-0.9,-6.0,79,29.69,9.0,East,8.1,-,N/A,,Overcast,80,2013-02-14 06:53:00
10:53 PM,-2.9,-7.1,82,29.69,10.0,East,9.2,-,N/A,,Overcast,80,2013-02-14 07:53:00
11:53 PM,-2.9,-6.0,87,29.69,9.0,ENE,8.1,-,N/A,,Overcast,70,2013-02-14 08:53:00